Weather reports worldwide

Advertisment
Albacete/Los Llanos, Spain (8280): temperature & dewpoint: 18.06.2018 16:00:00 - 24.06.2018 16:00:00 (CEST)Albacete/Los Llanos, Spain (8280): wind speed: 18.06.2018 16:00:00 - 24.06.2018 16:00:00 (CEST)Albacete/Los Llanos, Spain (8280): wind direction: 18.06.2018 16:00:00 - 24.06.2018 16:00:00 (CEST)Albacete/Los Llanos, Spain (8280): reduced air pressure: 18.06.2018 16:00:00 - 24.06.2018 16:00:00 (CEST)Albacete/Los Llanos, Spain (8280): visibility: 18.06.2018 16:00:00 - 24.06.2018 16:00:00 (CEST)
Date & Time tt [°C] td [°C] ff [km/h] ff [kn] dd ppp [hPa] vv [km]
24.06.2018 16:00:00 - - - - - - -
24.06.2018 15:00:00 - - - - - - -
24.06.2018 14:00:00 32,1 11,8 8 4 WNW 1012,4 30
24.06.2018 13:00:00 - - - - - - -
24.06.2018 12:00:00 - - - - - - -
24.06.2018 11:00:00 24,2 13,4 9 5 S 1015,5 30
24.06.2018 10:00:00 - - - - - - -
24.06.2018 09:00:00 - - - - - - -
24.06.2018 08:00:00 17,7 12,6 15 8 ESE 1017,0 30
24.06.2018 07:00:00 - - - - - - -
24.06.2018 06:00:00 - - - - - - -
24.06.2018 05:00:00 17,7 12,2 5 3 N 1016,7 30
24.06.2018 04:00:00 - - - - - - -
24.06.2018 03:00:00 - - - - - - -
24.06.2018 02:00:00 19,9 11,7 9 5 SSE 1016,9 30
24.06.2018 01:00:00 - - - - - - -
24.06.2018 00:00:00 - - - - - - -
23.06.2018 23:00:00 22,8 11,2 8 4 S 1015,4 30
23.06.2018 22:00:00 - - - - - - -
23.06.2018 21:00:00 - - - - - - -
23.06.2018 20:00:00 29,6 10,2 18 10 S 1012,5 30
23.06.2018 19:00:00 - - - - - - -
23.06.2018 18:00:00 - - - - - - -
23.06.2018 17:00:00 32,4 9,2 18 10 S 1012,3 30
23.06.2018 16:00:00 - - - - - - -
23.06.2018 15:00:00 - - - - - - -
23.06.2018 14:00:00 31,3 9,5 16 9 S 1014,1 30
23.06.2018 13:00:00 - - - - - - -
23.06.2018 12:00:00 - - - - - - -
23.06.2018 11:00:00 28,4 10,1 8 4 S 1015,2 30
23.06.2018 10:00:00 - - - - - - -
23.06.2018 09:00:00 - - - - - - -
23.06.2018 08:00:00 18,2 9,5 5 3 N 1018,0 30
23.06.2018 07:00:00 - - - - - - -
23.06.2018 06:00:00 - - - - - - -
23.06.2018 05:00:00 17,0 8,7 9 5 SSE 1018,1 30
23.06.2018 04:00:00 - - - - - - -
23.06.2018 03:00:00 - - - - - - -
23.06.2018 02:00:00 20,5 10,0 8 4 S 1016,9 30
23.06.2018 01:00:00 - - - - - - -
23.06.2018 00:00:00 - - - - - - -
22.06.2018 23:00:00 23,5 10,6 11 6 S 1015,8 30
22.06.2018 22:00:00 - - - - - - -
22.06.2018 21:00:00 - - - - - - -
22.06.2018 20:00:00 30,2 9,1 15 8 S 1012,2 30
22.06.2018 19:00:00 - - - - - - -
22.06.2018 18:00:00 - - - - - - -
22.06.2018 17:00:00 31,9 8,8 15 8 SSW 1012,2 30
22.06.2018 16:00:00 - - - - - - -
22.06.2018 15:00:00 - - - - - - -
22.06.2018 14:00:00 30,9 8,6 11 6 S 1014,0 40
22.06.2018 13:00:00 - - - - - - -
22.06.2018 12:00:00 - - - - - - -
22.06.2018 11:00:00 26,1 9,9 4 2 N 1016,3 30
22.06.2018 10:00:00 - - - - - - -
22.06.2018 09:00:00 - - - - - - -
22.06.2018 08:00:00 15,9 10,7 4 2 N 1019,0 35
22.06.2018 07:00:00 - - - - - - -
22.06.2018 06:00:00 - - - - - - -
22.06.2018 05:00:00 16,5 10,1 5 3 ESE 1018,2 45
22.06.2018 04:00:00 - - - - - - -
22.06.2018 03:00:00 - - - - - - -
22.06.2018 02:00:00 18,6 10,2 9 5 ESE 1018,1 45
22.06.2018 01:00:00 - - - - - - -
22.06.2018 00:00:00 - - - - - - -
21.06.2018 23:00:00 21,6 10,4 9 5 S 1016,8 45
21.06.2018 22:00:00 - - - - - - -
21.06.2018 21:00:00 - - - - - - -
21.06.2018 20:00:00 29,0 7,6 16 9 S 1013,6 40
21.06.2018 19:00:00 - - - - - - -
21.06.2018 18:00:00 - - - - - - -
21.06.2018 17:00:00 30,8 6,6 15 8 E 1013,3 40
21.06.2018 16:00:00 - - - - - - -
21.06.2018 15:00:00 - - - - - - -
21.06.2018 14:00:00 28,9 7,5 13 7 ESE 1014,9 40
21.06.2018 13:00:00 - - - - - - -
21.06.2018 12:00:00 - - - - - - -
21.06.2018 11:00:00 23,3 10,4 9 5 ESE 1017,7 40
21.06.2018 10:00:00 - - - - - - -
21.06.2018 09:00:00 - - - - - - -
21.06.2018 08:00:00 16,0 10,5 5 3 N 1019,4 30
21.06.2018 07:00:00 - - - - - - -
21.06.2018 06:00:00 - - - - - - -
21.06.2018 05:00:00 15,6 10,6 11 6 SE 1019,0 30
21.06.2018 04:00:00 - - - - - - -
21.06.2018 03:00:00 - - - - - - -
21.06.2018 02:00:00 18,1 10,0 9 5 ESE 1018,9 30
21.06.2018 01:00:00 - - - - - - -
21.06.2018 00:00:00 - - - - - - -
20.06.2018 23:00:00 21,6 10,4 9 5 ESE 1017,4 30
20.06.2018 22:00:00 - - - - - - -
20.06.2018 21:00:00 - - - - - - -
20.06.2018 20:00:00 28,2 9,5 13 7 S 1013,7 30
20.06.2018 19:00:00 - - - - - - -
20.06.2018 18:00:00 - - - - - - -
20.06.2018 17:00:00 29,3 8,9 9 5 S 1014,1 30
20.06.2018 16:00:00 - - - - - - -
20.06.2018 15:00:00 - - - - - - -
20.06.2018 14:00:00 27,6 8,5 15 8 SSE 1016,9 30
20.06.2018 13:00:00 - - - - - - -
20.06.2018 12:00:00 - - - - - - -
20.06.2018 11:00:00 24,0 10,3 15 8 S 1017,7 30
20.06.2018 10:00:00 - - - - - - -
20.06.2018 09:00:00 - - - - - - -
20.06.2018 08:00:00 16,3 10,8 8 4 SE 1019,7 25
20.06.2018 07:00:00 - - - - - - -
20.06.2018 06:00:00 - - - - - - -
20.06.2018 05:00:00 14,9 10,7 11 6 ESE 1020,2 20
20.06.2018 04:00:00 - - - - - - -
20.06.2018 03:00:00 - - - - - - -
20.06.2018 02:00:00 17,7 11,0 15 8 SSE 1019,6 20
20.06.2018 01:00:00 - - - - - - -
20.06.2018 00:00:00 - - - - - - -
19.06.2018 23:00:00 20,4 11,6 21 11 S 1018,7 20
19.06.2018 22:00:00 - - - - - - -
19.06.2018 21:00:00 - - - - - - -
19.06.2018 20:00:00 26,3 10,9 18 10 S 1016,1 30
19.06.2018 19:00:00 - - - - - - -
19.06.2018 18:00:00 - - - - - - -
19.06.2018 17:00:00 28,2 11,3 16 9 S 1016,2 30
19.06.2018 16:00:00 - - - - - - -
19.06.2018 15:00:00 - - - - - - -
19.06.2018 14:00:00 26,6 9,9 16 9 S 1018,1 30
19.06.2018 13:00:00 - - - - - - -
19.06.2018 12:00:00 - - - - - - -
19.06.2018 11:00:00 23,7 10,0 16 9 SSE 1019,9 30
19.06.2018 10:00:00 - - - - - - -
19.06.2018 09:00:00 - - - - - - -
19.06.2018 08:00:00 17,4 11,9 9 5 ESE 1021,0 30
19.06.2018 07:00:00 - - - - - - -
19.06.2018 06:00:00 - - - - - - -
19.06.2018 05:00:00 15,2 11,2 11 6 ESE 1021,0 30
19.06.2018 04:00:00 - - - - - - -
19.06.2018 03:00:00 - - - - - - -
19.06.2018 02:00:00 18,4 11,7 4 2 N 1020,3 30
19.06.2018 01:00:00 - - - - - - -
19.06.2018 00:00:00 - - - - - - -
18.06.2018 23:00:00 21,5 12,4 9 5 SSE 1018,8 30
18.06.2018 22:00:00 - - - - - - -
18.06.2018 21:00:00 - - - - - - -
18.06.2018 20:00:00 30,7 6,6 8 4 ENE 1014,1 30
18.06.2018 19:00:00 - - - - - - -
18.06.2018 18:00:00 - - - - - - -
18.06.2018 17:00:00 31,1 8,8 9 5 WSW 1014,9 30
18.06.2018 16:00:00 - - - - - - -

tt = temperature
td = dewpoint
ff = wind speed
dd = wind direction
ppp = reduced air pressure
vv = visibility

Next stations